Orbital Elements at Epoch 2459000.5 (2020-May-31.0) TDB
Reference: JPL 15 (heliocentric ecliptic J2000)
Element | Value | Uncertainty (1-sigma) | Units |
e | .1294655852138598 | 4.2055e-08 | |
a | 2.447489987982929 | 1.1866e-08 | au |
q | 2.130624264383656 | 1.0149e-07 | au |
i | 2.513788139415478 | 6.1285e-06 | deg |
node | 147.364820783929 | 9.9443e-05 | deg |
peri | 54.10619367442715 | 0.00010255 | deg |
M | 77.23953041279772 | 2.6383e-05 | deg |
tp | 2458700.433897935415 (2019-Aug-04.93389794) | 0.00010153 | TDB |
period | 1398.555845250872 3.83 | 1.0171e-05 2.785e-08 | d yr |
n | .2574083839572551 | 1.8719e-09 | deg/d |
Q | 2.764355711582201 | 1.3402e-08 | au |
|
| | Orbit Determination Parameters
Additional Information
|